Date String (YYYY-MM-DD hh:mm:ss) UTC,Instrument flags,absolute air pressure of the measurement (hPa),sample flow rate (lpm),inlet stack bypass flow (lpm),air temperature of the measurement (°C),ambient temperature measured by the external sensor (°C),aerosol sample conditioner tube jacket temperature (°C),OPC LED temperature (°C),internal box temperature (°C),relative humidity of the measurement (%),span deviation,mass concentration of particles derived from Lorenz-Mie calculation of OPC scattering (μg/m³),mass concentration of particles derived from Lorenz-Mie calculation of OPC scattering (μg/m³),mass concentration of particles derived from Lorenz-Mie calculation of OPC scattering (μg/m³)
DateTimeUTC,F1_M11,P_M11,Q1_M11,Q2_M11,T1_M11,T2_M11,T3_M11,T4_M11,T5_M11,U1_M11,ZSPAN_M11,X0_M11,X2_M11,X1_M11
2024-06-03 19:00:00,SystemResetWarning,0821.3,5.01,000.00,029.4,026.2,000.0,038.0,030.0,016.2,0000.0,0015.56,0005.00,0003.81
2024-06-03 19:01:00,SystemResetWarning,0821.3,5.02,000.00,029.1,026.1,000.0,038.0,029.9,018.6,0000.0,0016.09,0005.03,0003.83
2024-06-03 19:02:00,SystemResetWarning,0821.3,5.00,000.00,029.1,026.7,000.0,037.8,030.2,018.2,0000.0,0016.53,0005.12,0003.87
2024-06-03 19:03:00,SystemResetWarning,0821.3,5.00,000.00,029.1,027.1,000.0,037.7,030.5,018.5,0000.0,0018.44,0005.29,0003.92
2024-06-03 19:04:00,SystemResetWarning,0821.3,5.00,000.00,029.2,027.6,000.0,037.7,030.7,018.7,0000.0,0019.52,0005.40,0003.96
2024-06-03 19:05:00,SystemResetWarning,0821.3,5.00,000.00,029.2,027.9,000.0,037.7,030.8,019.0,0000.0,0020.58,0005.47,0004.01
2024-06-03 19:06:00,SystemResetWarning,0821.3,5.00,000.00,029.3,028.2,000.0,037.7,031.0,018.9,0000.0,0022.57,0005.55,0004.04
2024-06-03 19:07:00,SystemResetWarning,0821.4,5.00,000.00,029.3,028.5,000.0,037.7,031.1,018.7,0000.0,0026.94,0005.87,0004.12
2024-06-03 19:08:00,SystemResetWarning,0821.4,5.00,000.00,029.4,028.7,000.0,037.7,031.2,019.4,0000.0,0029.38,0006.14,0004.19
2024-06-03 19:09:00,SystemResetWarning,0821.3,4.99,000.00,029.5,028.9,000.0,037.7,031.3,019.0,0000.0,0031.50,0006.41,0004.26
2024-06-03 19:10:00,SystemResetWarning,0821.4,5.00,000.00,029.6,029.0,000.0,037.7,031.4,018.4,0000.0,0033.31,0006.66,0004.33
2024-06-03 19:11:00,SystemResetWarning,0821.5,4.99,000.00,029.7,029.2,000.0,037.7,031.5,017.4,0000.0,0034.91,0006.84,0004.39
2024-06-03 19:12:00,SystemResetWarning,0821.4,5.00,000.00,029.7,029.3,000.0,037.8,031.6,017.6,0000.0,0035.77,0006.94,0004.43
2024-06-03 19:13:00,SystemResetWarning,0821.4,5.01,000.00,029.8,029.4,000.0,037.8,031.6,015.6,0000.0,0038.77,0007.00,0004.44
2024-06-03 19:14:00,SystemResetWarning,0821.3,4.99,000.00,029.7,028.1,000.0,037.9,031.0,015.5,0000.0,0039.32,0006.94,0004.42
2024-06-03 19:15:00,SystemResetWarning,0821.2,5.01,000.00,029.3,025.9,000.0,037.9,029.9,016.8,0000.0,0037.85,0006.90,0004.43
2024-06-03 19:16:00,SystemResetWarning,0821.2,5.02,000.00,029.0,026.0,000.0,037.9,029.8,016.9,0000.0,0038.03,0006.88,0004.41
2024-06-03 19:17:00,SystemResetWarning,0821.2,5.00,000.00,029.0,026.5,000.0,037.8,030.1,017.0,0000.0,0035.59,0006.84,0004.40
2024-06-03 19:18:00,SystemResetWarning,0821.2,4.99,000.00,029.0,026.9,000.0,037.7,030.3,016.5,0000.0,0031.61,0006.58,0004.36
2024-06-03 19:19:00,SystemResetWarning,0821.2,5.01,000.00,029.1,027.4,000.0,037.6,030.6,017.2,0000.0,0028.16,0006.32,0004.32
2024-06-03 19:20:00,SystemResetWarning,0821.2,5.00,000.00,029.1,027.8,000.0,037.6,030.7,018.0,0000.0,0025.99,0006.15,0004.29
2024-06-03 19:21:00,SystemResetWarning,0821.2,5.00,000.00,029.2,028.1,000.0,037.6,030.9,016.2,0000.0,0023.74,0005.97,0004.27
2024-06-03 19:22:00,SystemResetWarning,0821.2,5.00,000.00,029.3,028.4,000.0,037.6,031.0,016.1,0000.0,0022.76,0005.77,0004.24
2024-06-03 19:23:00,SystemResetWarning,0821.2,5.00,000.00,029.3,028.6,000.0,037.6,031.1,016.3,0000.0,0022.34,0005.66,0004.21
2024-06-03 19:24:00,SystemResetWarning,0821.2,5.00,000.00,029.4,028.8,000.0,037.6,031.2,016.1,0000.0,0019.20,0005.59,0004.19
2024-06-03 19:25:00,SystemResetWarning,0821.2,4.99,000.00,029.5,028.9,000.0,037.6,031.3,018.0,0000.0,0016.78,0005.53,0004.17
2024-06-03 19:26:00,SystemResetWarning,0821.2,4.99,000.00,029.6,029.1,000.0,037.6,031.4,017.1,0000.0,0016.74,0005.55,0004.16
2024-06-03 19:27:00,SystemResetWarning,0821.2,5.00,000.00,029.7,029.2,000.0,037.7,031.5,017.4,0000.0,0016.07,0005.54,0004.16
2024-06-03 19:28:00,SystemResetWarning,0821.2,5.00,000.00,029.7,029.3,000.0,037.7,031.5,018.4,0000.0,0015.81,0005.58,0004.18
2024-06-03 19:29:00,SystemResetWarning,0821.2,4.99,000.00,029.6,027.8,000.0,037.8,030.8,019.3,0000.0,0016.43,0005.69,0004.20
2024-06-03 19:30:00,SystemResetWarning,0821.1,5.01,000.00,029.2,025.8,000.0,037.8,029.8,018.4,0000.0,0017.41,0005.72,0004.22
2024-06-03 19:31:00,SystemResetWarning,0821.2,5.01,000.00,028.9,025.9,000.0,037.8,029.7,017.3,0000.0,0017.30,0005.76,0004.24
2024-06-03 19:32:00,SystemResetWarning,0821.3,4.99,000.00,028.9,026.4,000.0,037.7,030.0,017.8,0000.0,0018.07,0005.75,0004.26
2024-06-03 19:33:00,SystemResetWarning,0821.0,5.00,000.00,028.9,026.9,000.0,037.6,030.3,018.1,0000.0,0017.96,0005.76,0004.28
2024-06-03 19:34:00,SystemResetWarning,0821.3,5.01,000.00,029.0,027.3,000.0,037.5,030.5,018.3,0000.0,0017.41,0005.82,0004.32
2024-06-03 19:35:00,SystemResetWarning,0821.1,5.00,000.00,029.0,027.7,000.0,037.5,030.7,017.9,0000.0,0017.09,0005.85,0004.36
2024-06-03 19:36:00,SystemResetWarning,0821.1,4.98,000.00,029.1,028.0,000.0,037.5,030.8,017.1,0000.0,0017.96,0005.91,0004.41
2024-06-03 19:37:00,SystemResetWarning,0821.2,5.02,000.00,029.2,028.3,000.0,037.5,031.0,016.6,0000.0,0018.01,0005.94,0004.45
2024-06-03 19:38:00,SystemResetWarning,0821.1,4.99,000.00,029.3,028.5,000.0,037.5,031.1,017.2,0000.0,0018.62,0005.99,0004.45
2024-06-03 19:39:00,SystemResetWarning,0821.1,4.99,000.00,029.3,028.7,000.0,037.5,031.2,017.2,0000.0,0018.27,0005.94,0004.47
2024-06-03 19:40:00,SystemResetWarning,0821.4,4.99,000.00,029.4,028.9,000.0,037.5,031.3,016.0,0000.0,0018.71,0005.91,0004.48
2024-06-03 19:41:00,SystemResetWarning,0821.1,5.00,000.00,029.5,029.0,000.0,037.6,031.3,016.0,0000.0,0018.75,0005.88,0004.50
2024-06-03 19:42:00,SystemResetWarning,0821.1,5.00,000.00,029.6,029.2,000.0,037.6,031.4,015.7,0000.0,0021.32,0005.90,0004.49
2024-06-03 19:43:00,SystemResetWarning,0821.1,5.00,000.00,029.7,029.2,000.0,037.6,031.4,015.6,0000.0,0021.49,0005.90,0004.47
2024-06-03 19:44:00,SystemResetWarning,0821.1,4.99,000.00,029.5,027.6,000.0,037.7,030.6,016.6,0000.0,0022.29,0005.87,0004.46
2024-06-03 19:45:00,SystemResetWarning,0820.9,5.01,000.00,029.1,025.6,000.0,037.8,029.7,017.0,0000.0,0022.34,0005.81,0004.43
2024-06-03 19:46:00,SystemResetWarning,0820.8,5.02,000.00,028.9,025.8,000.0,037.7,029.7,016.9,0000.0,0022.53,0005.79,0004.41
2024-06-03 19:47:00,SystemResetWarning,0820.9,4.99,000.00,028.8,026.4,000.0,037.6,030.0,017.5,0000.0,0022.64,0005.77,0004.40
2024-06-03 19:48:00,SystemResetWarning,0821.1,5.00,000.00,028.9,026.8,000.0,037.5,030.2,017.5,0000.0,0023.35,0005.74,0004.38
2024-06-03 19:49:00,SystemResetWarning,0821.2,5.01,000.00,028.9,027.3,000.0,037.4,030.4,017.9,0000.0,0023.06,0005.68,0004.39
2024-06-03 19:50:00,SystemResetWarning,0820.9,5.00,000.00,029.0,027.7,000.0,037.4,030.7,018.4,0000.0,0023.68,0005.71,0004.39
2024-06-03 19:51:00,SystemResetWarning,0821.1,4.99,000.00,029.1,028.0,000.0,037.4,030.8,019.0,0000.0,0025.58,0005.79,0004.40
2024-06-03 19:52:00,SystemResetWarning,0820.9,5.00,000.00,029.1,028.3,000.0,037.4,030.9,018.2,0000.0,0027.59,0005.87,0004.40
2024-06-03 19:53:00,SystemResetWarning,0820.9,5.00,000.00,029.2,028.5,000.0,037.4,031.0,018.1,0000.0,0027.46,0005.91,0004.41
2024-06-03 19:54:00,SystemResetWarning,0820.9,5.00,000.00,029.3,028.7,000.0,037.4,031.1,018.5,0000.0,0029.13,0006.08,0004.43
2024-06-03 19:55:00,SystemResetWarning,0820.9,5.00,000.00,029.4,028.9,000.0,037.5,031.2,017.6,0000.0,0030.04,0006.23,0004.46
2024-06-03 19:56:00,SystemResetWarning,0820.9,5.00,000.00,029.5,029.0,000.0,037.5,031.3,019.1,0000.0,0030.40,0006.31,0004.46
2024-06-03 19:57:00,SystemResetWarning,0821.0,5.01,000.00,029.6,029.1,000.0,037.5,031.4,019.1,0000.0,0030.56,0006.40,0004.47
2024-06-03 19:58:00,SystemResetWarning,0820.9,4.99,000.00,029.6,029.1,000.0,037.6,031.4,017.9,0000.0,0031.34,0006.46,0004.46
2024-06-03 19:59:00,SystemResetWarning,0820.8,4.99,000.00,029.5,027.4,000.0,037.7,030.5,017.5,0000.0,0033.00,0006.48,0004.43
